Location: Unspecified
(52.4292°N, 19.3359°E)
Time: 23:44:39
(UTC+02:00)

A-11 Canister half - Pass Details

Date: 22 May 2024
Orbit: 1515 x 1685 km, 47.2° (Epoch: 19 June)

Event Time Altitude Azimuth Distance (km) Brightness Sun altitude
Rises 09:20:35 0° 285° (WNW) 4,673 11.1 40.3°
Reaches altitude 10° 09:24:07 10° 275° (W) 3,681 10.7 40.8°
Maximum altitude 09:31:36 29° 220° (SW) 2,495 10.3 41.9°
Drops below altitude 10° 09:39:08 10° 165° (SSE) 3,690 11.6 42.9°
Sets 09:42:41 0° 155° (SSE) 4,686 12.1 43.4°
